Regional Weather Roundup
Issued by NWS

Home | Current Version | Previous Version | Text Only | Print | Product List | Glossary Off
Versions: 1 2 3 4 5 6 7 8 9 10 11 12 13 14 15 16 17 18 19 20 21 22 23 24 25 26 27 28 29 30 31 32 33 34 35 36 37 38 39 40 41 42 43 44 45 46 47 48 49 50

000
ASUS43 KLMK 171510
RWRKY
KENTUCKY REGIONAL WEATHER ROUNDUP
NATIONAL WEATHER SERVICE LOUISVILLE KY
1000 AM EST SAT FEB 17 2018

NOTE "FAIR" INDICATES FEW OR NO CLOUDS BELOW 12,000 FEET
WITH NO SIGNIFICANT WEATHER AND/OR OBSTRUCTIONS TO VISIBILITY.

KYZ001>023-026-027-061>063-070>075-171600-
WESTERN AND SOUTH CENTRAL KENTUCKY

CITY           SKY/WX    TMP DP  RH WIND       PRES   REMARKS
PADUCAH        LGT RAIN  37  33  85 E7        30.12F FOG     WCI  32
HENDERSON      LGT RAIN  37  32  82 SE3       30.16R
OWENSBORO      LGT RAIN  38  31  76 N3        30.17R
HOPKINSVILLE   HVY RAIN  39  38  98 N5        30.12R FOG
BOWLING GREEN  LGT RAIN  40  37  89 E3        30.08F FOG
GLASGOW        LGT RAIN  38  38 100 E3        30.08F
$$

KYZ024-025-028>034-038-045-046-053-171600-
NORTH CENTRAL KENTUCKY

CITY           SKY/WX    TMP DP  RH WIND       PRES   REMARKS
LOUISVILLE/SDF CLOUDY    38  31  76 E6        30.10F WCI  33
LOUISVILLE/LOU PTSUNNY   37  32  82 E8        30.10F WCI  31
FORT KNOX      FAIR      36  32  87 NE7       30.11S WCI  30
$$

KYZ035>037-039>044-047>052-055>060-089>105-171600-
NORTHEAST KENTUCKY

CITY           SKY/WX    TMP DP  RH WIND       PRES   REMARKS
LEXINGTON      PTSUNNY   37  32  82 E10       30.09F WCI  30
COVINGTON      CLOUDY    34  29  82 SE8       30.11F WCI  27
FRANKFORT      FAIR      37  29  72 NE6       30.10F WCI  32
$$

KYZ054-064>069-076>088-106>120-171600-
SOUTHEAST KENTUCKY

CITY           SKY/WX    TMP DP  RH WIND       PRES   REMARKS
JACKSON        CLOUDY    37  35  92 CALM      30.10F FOG
LONDON         LGT RAIN  40  37  89 E5        30.08F FOG
SOMERSET       CLOUDY    37  37 100 CALM      30.11S
MIDDLESBORO    RAIN      43  42  95 CALM      30.12F
MONTICELLO     NOT AVBL
$$




USA.gov is the U.S. government's official web portal to all federal, state and local government web resources and services.